Regional Weather Roundup
Issued by NWS

Home | Current Version | Previous Version | Graphics & Text | Print | Product List | Glossary On
Versions: 1 2 3 4 5 6 7 8 9 10 11 12 13 14 15 16 17 18 19 20 21 22 23 24 25 26 27 28 29 30 31 32 33 34 35 36 37 38 39 40 41 42 43 44 45 46 47 48 49 50
000
ASUS43 KMKX 010321
RWRWI

WISCONSIN REGIONAL WEATHER ROUNDUP
NATIONAL WEATHER SERVICE MILWAUKEE/SULLIVAN WI
1000 PM CDT SAT APR 30 2016

NOTE: "FAIR" INDICATES FEW OR NO CLOUDS BELOW 12,000 FEET WITH NO
SIGNIFICANT WEATHER AND/OR OBSTRUCTIONS TO VISIBILITY.

WIZ001-002-006>008-014>016-023>028-010400-
NORTHWEST WISCONSIN

CITY           SKY/WX    TMP DP  RH WIND       PRES   REMARKS
SUPERIOR ARPT  CLOUDY    39  30  70 NE9       30.24S WCI  33
ASHLAND        CLOUDY    38  33  82 NE10      30.23S WCI  31
HAYWARD        CLOUDY    40  31  70 NE12      30.17S WCI  33
SIREN          CLOUDY    42  28  57 NE13      30.16S
CUMBERLAND     CLOUDY    41  30  65 NE15      30.12R
RICE LAKE      CLOUDY    45  32  60 N17G25    30.12S
CHETEK         CLOUDY    47  34  60 NE13G24   30.10S
LADYSMITH      CLOUDY    47  34  60 NE14      30.13R
EAU CLAIRE     CLOUDY    50  34  54 W3        30.07R
MENOMONIE      CLOUDY    50  34  54 E6        30.09R
NEW RICHMOND   CLOUDY    46  31  55 NE13G22   30.11R
OSCEOLA        CLOUDY    46  31  56 NE16G22   30.14R
$$

WIZ003>005-009-010-017-018-010400-
NORTH CENTRAL WISCONSIN

CITY           SKY/WX    TMP DP  RH WIND       PRES   REMARKS
MANITOWISH WTR PTCLDY    40  32  73 NE15      30.16S WCI  32
ARBOR VITAE    PTCLDY    42  31  66 NE10G16   30.15R
WOODRUFF       PTCLDY    42  31  66 NE10G16   30.15R
RHINELANDER    MOCLDY    44  31  60 NE12G21   30.13R
EAGLE RIVER    PTCLDY    40  30  67 NE12      30.14S WCI  33
LAND O LAKES   PTCLDY    39  32  75 N10G16    30.17F WCI  32
PHILLIPS       CLOUDY    43  31  62 NE13G21   30.13R
TOMAHAWK       CLOUDY    46  32  58 NE9G16    30.12R
MEDFORD        CLOUDY    49  34  57 NE12      30.07S
MERRILL        CLOUDY    50  33  51 E10       30.10R
$$

WIZ029-030-035-036-043>047-010400-
CENTRAL WISCONSIN

CITY           SKY/WX    TMP DP  RH WIND       PRES   REMARKS
WAUSAU         CLOUDY    52  34  50 NE7       30.06S
MOSINEE        NOT AVBL
MARSHFIELD     CLOUDY    49  34  56 E14G20    30.05S
STEVENS POINT  CLOUDY    47  32  56 E6        30.07S
WAUPACA        CLOUDY    50  33  51 NE7       30.06S
WAUTOMA        CLOUDY    44  38  79 NE6       30.05F
WISC RAPIDS    LGT RAIN  48  33  56 E15G23    30.07S
CAMP DOUGLAS   CLOUDY    45  45 100 NE8       30.05R
$$

WIZ011>013-019>022-031-037>040-048>050-010400-
NORTHEAST WISCONSIN

CITY           SKY/WX    TMP DP  RH WIND       PRES   REMARKS
ANTIGO         CLOUDY    46  32  60 NE14      30.09S
SHAWANO        CLOUDY    51  35  53 NE14      30.07F
OCONTO         CLOUDY    49  32  52 NE8G18    30.09S
STURGEON BAY   CLOUDY    45  32  61 NE12G21   30.10F
GREEN BAY      LGT RAIN  48  36  63 NE26G35   30.06F
MANITOWOC      LGT RAIN  45  33  63 NE13G18   30.05F
APPLETON       CLOUDY    48  30  49 NE20G28   30.02F
CLINTONVILLE   CLOUDY    50  32  50 NE14G20   30.06F
OSHKOSH        CLOUDY    48  37  65 NE10      30.03R
$$

WIZ032>034-041-042-053>061-010400-
SOUTHWEST WISCONSIN

CITY           SKY/WX    TMP DP  RH WIND       PRES   REMARKS
LA CROSSE      LGT RAIN  44  40  85 CALM      30.05R
SPARTA         LGT RAIN  44  39  81 NE7       30.06R
VIROQUA        CLOUDY    43  39  88 E12G21    30.03R
BOSCOBEL       LGT RAIN  45  45 100 NE7       30.02R FOG
PRAIRIE DU CHI DRIZZLE   44  41  89 NE5       30.01S
PLATTEVILLE    CLOUDY    44  42  94 NE14G23   29.97S
$$

WIZ056-057-062-063-064-067-068-010400-
SOUTH CENTRAL WISCONSIN

CITY           SKY/WX    TMP DP  RH WIND       PRES   REMARKS
REEDSBURG      CLOUDY    43  41  92 NE9       30.04R
BARABOO/DELLS  DRIZZLE   43  40  90 NE7       30.03R
LONE ROCK      CLOUDY    45  41  86 NE7       30.03R
MINERAL POINT  LGT RAIN  43  43 100 NE15      29.98S
MADISON        DRIZZLE   44  39  82 NE10      30.01R
MIDDLETON      CLOUDY    45  40  85 NE12G18   30.01R
WATERTOWN      CLOUDY    42  42 100 NE9       29.99F
MONROE         CLOUDY    43  41  93 NE17G23   29.95S
JANESVILLE     NOT AVBL
$$

WIZ051-052-058>065-066-070>072-010400-
SOUTHEAST WISCONSIN

CITY           SKY/WX    TMP DP  RH WIND       PRES   REMARKS
MILWAUKEE      LGT RAIN  44  42  93 NE15      29.99F
WAUKESHA       CLOUDY    41  41 100 NE10G17   30.00R
MILWAUKEE/TIMM CLOUDY    43  39  87 NE12G17   30.01R
RACINE         LGT RAIN  44  42  93 NE16      30.00F
BURLINGTON     CLOUDY    43  42  97 NE9       29.97S
KENOSHA        LGT RAIN  44  42  93 NE14G23   29.97F
FOND DU LAC    CLOUDY    45  38  76 NE12      30.03R
SHEBOYGAN      LGT RAIN  42  38  85 E12       30.03F
WEST BEND      CLOUDY    41  37  87 E7        30.02R
JUNEAU         CLOUDY    42  39  89 NE9       30.02S
$$

LSZ147-162-010400-
LAKE SUPERIOR

STATION/POSITION TIME  TEMP    WIND        PRES    WAVE
                       AIR SEA DIR/SP/G            HT/PER
                 (UTC) (F)     (DEG/KT/KT) (MB)    (FT/S)
W MID LAKE BUOY  0250   38 37   40/  6/  6 1025.3R   1/ 4
DEVILS ISLAND    0300   40      80/ 13/ 14 1025.0R
PORT WING        0200   39      40/ 11/ 13 1024.4R
SAXON HARBOR     0200   41      60/ 13/ 15 1022.7S
$$

LMZ867-665-643>646-010400-
LAKE MICHIGAN

STATION/POSITION TIME  TEMP    WIND        PRES    WAVE
                       AIR SEA DIR/SP/G            HT/PER
                 (UTC) (F)     (DEG/KT/KT) (MB)    (FT/S)
CHAMBERS ISLAND  0200   44     360/ 18/ 22 1019.6F
N MID LAKE BUOY  0250   42 38   20/ 14/ 17 1019.9S   2/ 3
NORTHPORT PIER   0300   44      10/ 16/ 25 1019.6F
ALGOMA LAKESHORE 0200           20/ 14/ 22   N/A
KEWAUNEE LAKESHO 0200   47      20/ 13/ 20 1017.5F
SHEBOYGAN LAKESH 0300   41      70/ 15/ 17 1017.1F
PORT WASHINGTON  0220   43      40/ 11/ 24 1017.6F
S MID LAKE BUOY  0250   43 40   40/ 14/ 17 1015.1R   2/ 3
KENOSHA   LAKESH 0300   43      50/ 22/ 26 1014.6F
$$

TC  - TEMPERATURE IN CELSIUS
VSB - VISIBILITY IN STATUTE MILES
WCI - WIND CHILL INDEX
HX  - HEAT INDEX




USA.gov is the U.S. government's official web portal to all federal, state and local government web resources and services.